Volk, WI

7:56 AM CST on December 14, 2017 (GMT -0600)
Volk

Weather History for KVOK - April, 2013

Change the Weather History Date:

Friday, April 5, 2013

  Actual Average Record
Temperature  
Mean Temperature 34 °F -  
Max Temperature 47 °F 49 °F 75 °F (2005)
Min Temperature 23 °F 32 °F 17 °F (2016)
Degree Days  
Heating Degree Days 30    
Moisture  
Dew Point 24 °F    
Average Humidity 68    
Maximum Humidity 95    
Minimum Humidity 32    
Precipitation  
Precipitation 0.03 in - - ()
Sea Level Pressure  
Sea Level Pressure 30.16 in    
Wind  
Wind Speed 6 mph (ESE)    
Max Wind Speed 15 mph    
Max Gust Speed -    
Visibility 10 miles    
Events Rain    
Averages and records for this station are not official NWS values.
T = Trace of Precipitation, MM = Missing Value Source: NWS Daily Summary

Daily Weather History Graph

Daily Weather History Graph

Search for Another Location

Airport or City:

Trip Planner

Search our weather history database for the weather conditions in past years. The results will help you decide how hot, cold, wet, or windy it might be!

Date:

Astronomy

Apr. 05, 2013 Rise Set
Actual Time 6:34 AM CDT 7:33 PM CDT
Civil Twilight 6:05 AM CDT 8:02 PM CDT
Nautical Twilight 5:30 AM CDT 8:37 PM CDT
Astronomical Twilight 4:53 AM CDT 9:14 PM CDT
Moon 3:51 AM CDT (4/5) 2:48 PM CDT (4/5)
Length of Visible Light 13h 57m
Length of Day
12h 58m
Waning Crescent, 23% of the Moon is Illuminated
Apr 5
Waning Crescent
Apr 10
New
Apr 18
First Quarter
Apr 25
Full
May 2
Last Quarter

Hourly Weather History & Observations

Time (CDT) Temp. Windchill Dew Point Humidity Pressure Visibility Wind Dir Wind Speed Gust Speed Precip Events Conditions
12:55 AM 26.2 °F 20.7 °F 21.9 °F 84% 30.12 in 10.0 mi NW 4.6 mph - N/A   Clear
1:55 AM 27.1 °F 21.8 °F 21.2 °F 78% 30.14 in 10.0 mi WNW 4.6 mph - N/A   Clear
2:55 AM 25.2 °F 20.9 °F 20.1 °F 81% 30.15 in 10.0 mi NNW 3.5 mph - N/A   Clear
3:55 AM 25.3 °F 21.1 °F 19.8 °F 79% 30.17 in 10.0 mi West 3.5 mph - N/A   Clear
4:55 AM 23.0 °F 18.4 °F 18.3 °F 82% 30.19 in 10.0 mi NNW 3.5 mph - N/A   Clear
5:55 AM 23.5 °F 17.6 °F 18.0 °F 79% 30.21 in 10.0 mi West 4.6 mph - N/A   Clear
6:55 AM 24.8 °F 20.5 °F 17.8 °F 75% 30.23 in 10.0 mi WNW 3.5 mph - N/A   Clear
7:55 AM 29.8 °F - 21.4 °F 71% 30.25 in 10.0 mi Calm Calm - N/A   Clear
8:55 AM 35.6 °F 30.7 °F 21.2 °F 56% 30.26 in 10.0 mi Variable 5.8 mph - N/A   Clear
9:55 AM 39.2 °F 37.0 °F 21.2 °F 49% 30.27 in 10.0 mi Variable 3.5 mph - N/A   Clear
10:55 AM 39.2 °F - 19.4 °F 45% 30.26 in 10.0 mi Calm Calm - N/A   Partly Cloudy
11:55 AM 41.0 °F 38.0 °F 19.4 °F 42% 30.25 in 10.0 mi Variable 4.6 mph - N/A   Scattered Clouds
12:55 PM 42.8 °F 41.1 °F 15.8 °F 34% 30.23 in 10.0 mi Variable 3.5 mph - N/A   Mostly Cloudy
1:55 PM 44.6 °F 39.2 °F 19.4 °F 37% 30.21 in 10.0 mi South 10.4 mph - N/A   Mostly Cloudy
2:55 PM 46.4 °F 44.3 °F 17.6 °F 32% 30.19 in 10.0 mi ESE 4.6 mph - N/A   Mostly Cloudy
3:55 PM 46.0 °F 43.9 °F 18.1 °F 33% 30.17 in 10.0 mi SSE 4.6 mph - N/A   Mostly Cloudy
4:55 PM 46.4 °F 44.3 °F 19.4 °F 34% 30.17 in 10.0 mi South 4.6 mph - N/A   Overcast
5:55 PM 44.6 °F 40.7 °F 21.2 °F 39% 30.15 in 10.0 mi ESE 6.9 mph - N/A   Overcast
6:55 PM 42.8 °F 39.3 °F 23.4 °F 46% 30.13 in 10.0 mi East 5.8 mph - N/A   Clear
7:55 PM 41.7 °F 36.1 °F 22.3 °F 46% 30.12 in 10.0 mi ESE 9.2 mph - N/A   Scattered Clouds
8:55 PM 39.9 °F 33.4 °F 27.7 °F 62% 30.12 in 10.0 mi ESE 10.4 mph - N/A   Clear
9:24 PM 39.2 °F 31.6 °F 30.2 °F 70% 30.12 in 10.0 mi SSE 12.7 mph - N/A   Clear
9:36 PM 37.4 °F 30.3 °F 32.0 °F 81% 30.13 in 10.0 mi SE 10.4 mph - N/A Rain Light Rain
9:38 PM 37.4 °F 30.8 °F 32.0 °F 81% 30.13 in 10.0 mi ESE 9.2 mph - N/A Rain Light Rain
9:39 PM 37.4 °F 31.4 °F 32.0 °F 81% 30.13 in 10.0 mi ESE 8.1 mph - N/A Rain Light Rain
9:55 PM 36.1 °F 29.3 °F 31.8 °F 84% 30.13 in 10.0 mi ESE 9.2 mph - 0.01 in Rain Light Rain
10:52 PM 33.8 °F 25.3 °F 32.0 °F 93% 30.12 in 10.0 mi East 11.5 mph - N/A Rain Light Rain
10:55 PM 33.3 °F 24.1 °F 32.0 °F 95% 30.11 in 10.0 mi East 12.7 mph - 0.02 in   Mostly Cloudy
10:57 PM 33.8 °F 23.9 °F 32.0 °F 93% 30.11 in 10.0 mi East 15.0 mph - N/A   Mostly Cloudy
11:02 PM 33.8 °F 25.3 °F 32.0 °F 93% 30.10 in 10.0 mi East 11.5 mph - N/A   Mostly Cloudy
11:03 PM 33.8 °F 25.3 °F 32.0 °F 93% 30.10 in 10.0 mi East 11.5 mph - N/A   Mostly Cloudy
11:05 PM 33.8 °F 25.3 °F 32.0 °F 93% 30.11 in 10.0 mi East 11.5 mph - N/A   Scattered Clouds
11:55 PM 32.9 °F 22.8 °F 31.5 °F 94% 30.09 in 10.0 mi East 15.0 mph - N/A   Mostly Cloudy